Hourly Weather Roundup
Issued by NWS Central Illinois

Home | Current Version | Previous Version | Graphics & Text | Print | Product List | Glossary On
Versions: 1 2 3 4 5 6 7 8 9 10 11 12 13 14 15 16 17 18 19 20 21 22 23 24 25 26 27 28 29 30 31 32 33 34 35 36 37 38 39 40 41 42 43 44 45 46 47 48 49 50
000
NZUS43 KILX 021710
HWRILX

AREA WEATHER ROUNDUP
NATIONAL WEATHER SERVICE, LINCOLN IL
1200 PM CDT MON MAY 02 2016


CITY           SKY/WX    TMP DP  RH WIND       PRES   REMARKS
BLOOMINGTON    CLOUDY    54  48  82 NE8       30.07R
CHAMPAIGN      CLOUDY    52  46  80 N10       30.04R
DANVILLE       CLOUDY    48  47  96 N8        30.01R FOG
DECATUR        CLOUDY    51  45  79 N10       30.06R
EFFINGHAM      CLOUDY    54  49  85 NW8       30.06R
FLORA          CLOUDY    56  49  77 NW7       30.05R
GALESBURG      CLOUDY    53  46  75 N8        30.08S
JACKSONVILLE   CLOUDY    53  47  79 NE7       30.07R
LACON          CLOUDY    55  43  64 NE8       30.06R
LAWRENCEVILLE  CLOUDY    56  49  77 NW7       30.03R
LITCHFIELD     CLOUDY    50  46  84 N6        30.06S
$$


CITY           SKY/WX    TMP DP  RH WIND       PRES   REMARKS
LINCOLN        CLOUDY    52  48  85 N7        30.07R
MACOMB         CLOUDY    52  47  83 N9        30.10S
MATTOON        CLOUDY    51  47  86 NW8       30.03S
MT CARMEL AP   NOT AVBL
OLNEY-NOBLE AP CLOUDY    54  48  82 NW6       30.05R
PARIS          CLOUDY    51  50  96 NW8       30.04S FOG
PEORIA         CLOUDY    55  44  66 E5        30.06S
PONTIAC        CLOUDY    56  47  71 N7        30.05S
RANTOUL        CLOUDY    55  48  77 NE7       30.05R
ROBINSON       CLOUDY    53  49  85 N5        30.04R
SPRINGFIELD    CLOUDY    53  47  79 NE9       30.07R
TAYLORVILLE    CLOUDY    52  46  82 N6        30.07R
$$

...REGIONAL REPORTS...


CITY           SKY/WX    TMP DP  RH WIND       PRES   REMARKS
CHICAGO O`HARE PTSUNNY   55  36  48 NE17      30.05S
KANKAKEE       MOSUNNY   55  43  63 N14G21    30.05S
MOLINE         CLOUDY    56  42  59 VRB6      30.08S
MOUNT STERLING CLOUDY    51  47  85 NE5       30.08R
MOUNT VERNON   CLOUDY    55  46  71 W5        30.06R
PITTSFIELD     CLOUDY    54  48  81 NW7       30.09R
QUINCY         CLOUDY    53  47  79 N7        30.08R
ROCKFORD       PTSUNNY   59  36  42 NE10G20   30.08F
$$


CITY           SKY/WX    TMP DP  RH WIND       PRES   REMARKS
BURLINGTON     CLOUDY    51  46  83 NE9       30.09S
CEDAR RAPIDS   CLOUDY    55  43  63 E7        30.10S
DES MOINES     PTSUNNY   61  42  49 VRB3      30.11S
KIRKSVILLE     CLOUDY    56  44  64 N9        30.09S
OTTUMWA        CLOUDY    54  44  69 N9        30.10S
ST LOUIS       CLOUDY    57  46  66 NW3       30.07R
$$


CITY           SKY/WX    TMP DP  RH WIND       PRES   REMARKS
TERRE HAUTE    CLOUDY    53  47  79 W5        30.02S
EVANSVILLE     CLOUDY    60  51  72 VRB5      30.01F
INDIANAPOLIS   CLOUDY    55  49  80 W9        29.99R
LAFAYETTE      CLOUDY    50  47  89 N6        30.02R
MADISON        PTSUNNY   59  39  47 NE12      30.08F
MILWAUKEE      PTSUNNY   52  39  61 NE8       30.08F
$$






USA.gov is the U.S. government's official web portal to all federal, state and local government web resources and services.